カタログに戻る

WESTFORD NEEDLES

運用中PO
NORAD 2997·DEBRIS·🇺🇸 United States

打ち上げ May 9, 1963 から Vandenberg Space Force Base

Loading…

次のパス (今後24時間)

TLE

最新Source: Space-Track

元期: Sep 14, 2026, 10:38 UTC

1 02997U 63014AU  26257.44311301  .00003207  00000-0  75957+0 0  9994
2 02997  86.7187 153.9286 1031915 135.2132 233.6875  8.78412677324303

AllMySatでWESTFORD NEEDLESをリアルタイム追跡

Download on the App Store